| time (UTC) | temp C | wind direction | speed KPH | gust KPH | rain 1hr cm | rain 24hr cm | rain mn cm | humidity % | barometer mb |
| 20260503055003 | 16 | 1 | 1.6 | 4.8 | 0.00 | 0.00 | 0.00 | 47 | 1014.1 |
| 20260503054512 | 16 | 351 | 1.6 | 4.8 | 0.00 | 0.00 | 0.00 | 46 | 1014.0 |
| 20260503054002 | 16 | 330 | 1.6 | 4.8 | 0.00 | 0.00 | 0.00 | 46 | 1014.0 |
| 20260503053503 | 17 | 319 | 1.6 | 4.8 | 0.00 | 0.00 | 0.00 | 46 | 1013.9 |
| 20260503053014 | 17 | 335 | 1.6 | 4.8 | 0.00 | 0.00 | 0.00 | 46 | 1013.9 |
| 20260503052504 | 17 | 327 | 1.6 | 4.8 | 0.00 | 0.00 | 0.00 | 45 | 1013.9 |
| 20260503052005 | 17 | 307 | 0.0 | 3.2 | 0.00 | 0.00 | 0.00 | 44 | 1013.9 |
| 20260503051525 | 17 | 302 | 1.6 | 3.2 | 0.00 | 0.00 | 0.00 | 43 | 1013.9 |
| 20260503051006 | 17 | 349 | 0.0 | 0.0 | 0.00 | 0.00 | 0.00 | 43 | 1013.9 |
| 20260503050507 | 17 | 349 | 0.0 | 3.2 | 0.00 | 0.00 | 0.00 | 45 | 1013.8 |
| 20260503050022 | 17 | 349 | 0.0 | 3.2 | 0.00 | 0.00 | 0.00 | 44 | 1013.8 |
| 20260503045508 | 17 | 349 | 1.6 | 3.2 | 0.00 | 0.00 | 0.00 | 44 | 1013.8 |
| 20260503045004 | 17 | 1 | 0.0 | 3.2 | 0.00 | 0.00 | 0.00 | 44 | 1013.8 |
| 20260503044504 | 17 | 29 | 0.0 | 0.0 | 0.00 | 0.00 | 0.00 | 44 | 1013.8 |
| 20260503044004 | 17 | 29 | 0.0 | 0.0 | 0.00 | 0.00 | 0.00 | 43 | 1013.7 |
| 20260503043505 | 17 | 29 | 0.0 | 0.0 | 0.00 | 0.00 | 0.00 | 44 | 1013.7 |
| 20260503043010 | 18 | 29 | 0.0 | 0.0 | 0.00 | 0.00 | 0.00 | 44 | 1013.7 |
| 20260503042504 | 18 | 29 | 0.0 | 0.0 | 0.00 | 0.00 | 0.00 | 43 | 1013.7 |
| 20260503042004 | 18 | 29 | 0.0 | 0.0 | 0.00 | 0.00 | 0.00 | 42 | 1013.7 |
| 20260503041524 | 18 | 29 | 0.0 | 0.0 | 0.00 | 0.00 | 0.00 | 42 | 1013.6 |
| 20260503041003 | 18 | 29 | 0.0 | 0.0 | 0.00 | 0.00 | 0.00 | 41 | 1013.5 |
| 20260503040506 | 19 | 29 | 0.0 | 0.0 | 0.00 | 0.00 | 0.00 | 40 | 1013.4 |
| 20260503040022 | 19 | 29 | 0.0 | 0.0 | 0.00 | 0.00 | 0.00 | 40 | 1013.4 |
| 20260503035508 | 20 | 29 | 0.0 | 0.0 | 0.00 | 0.00 | 0.00 | 39 | 1013.4 |
| 20260503035011 | 20 | 29 | 0.0 | 0.0 | 0.00 | 0.00 | 0.00 | 38 | 1013.3 |
| 20260503034524 | 20 | 29 | 0.0 | 0.0 | 0.00 | 0.00 | 0.00 | 37 | 1013.3 |
| 20260503034008 | 20 | 29 | 0.0 | 1.6 | 0.00 | 0.00 | 0.00 | 37 | 1013.2 |
| 20260503033507 | 20 | 29 | 0.0 | 3.2 | 0.00 | 0.00 | 0.00 | 37 | 1013.1 |
| 20260503033007 | 20 | 29 | 0.0 | 3.2 | 0.00 | 0.00 | 0.00 | 36 | 1013.0 |
| 20260503032504 | 20 | 29 | 0.0 | 3.2 | 0.00 | 0.00 | 0.00 | 35 | 1013.0 |
| 20260503032004 | 21 | 37 | 0.0 | 1.6 | 0.00 | 0.00 | 0.00 | 35 | 1012.9 |
| 20260503031512 | 21 | 37 | 0.0 | 1.6 | 0.00 | 0.00 | 0.00 | 34 | 1012.8 |
| 20260503031005 | 21 | 37 | 0.0 | 1.6 | 0.00 | 0.00 | 0.00 | 33 | 1012.8 |
| 20260503030505 | 21 | 37 | 0.0 | 1.6 | 0.00 | 0.00 | 0.00 | 33 | 1012.8 |
| 20260503030024 | 21 | 37 | 0.0 | 3.2 | 0.00 | 0.00 | 0.00 | 33 | 1012.7 |
| 20260503025507 | 21 | 32 | 0.0 | 3.2 | 0.00 | 0.00 | 0.00 | 33 | 1012.7 |
| 20260503025006 | 21 | 14 | 0.0 | 3.2 | 0.00 | 0.00 | 0.00 | 33 | 1012.7 |
| 20260503024521 | 22 | 19 | 0.0 | 4.8 | 0.00 | 0.00 | 0.00 | 32 | 1012.7 |
| 20260503024010 | 22 | 19 | 1.6 | 4.8 | 0.00 | 0.00 | 0.00 | 30 | 1012.7 |
| 20260503023509 | 22 | 9 | 1.6 | 4.8 | 0.00 | 0.00 | 0.00 | 30 | 1012.7 |
| 20260503023027 | 22 | 33 | 0.0 | 8.0 | 0.00 | 0.00 | 0.00 | 29 | 1012.7 |
| 20260503022508 | 22 | 42 | 0.0 | 8.0 | 0.00 | 0.00 | 0.00 | 28 | 1012.7 |
| 20260503022009 | 22 | 39 | 1.6 | 6.4 | 0.00 | 0.00 | 0.00 | 28 | 1012.7 |
| 20260503021511 | 23 | 67 | 1.6 | 8.0 | 0.00 | 0.00 | 0.00 | 27 | 1012.7 |
| 20260503021003 | 23 | 41 | 1.6 | 8.0 | 0.00 | 0.00 | 0.00 | 27 | 1012.6 |
| 20260503020505 | 23 | 38 | 3.2 | 8.0 | 0.00 | 0.00 | 0.00 | 27 | 1012.5 |
| 20260503020014 | 23 | 75 | 3.2 | 8.0 | 0.00 | 0.00 | 0.00 | 27 | 1012.7 |
| 20260503015505 | 23 | 37 | 1.6 | 8.0 | 0.00 | 0.00 | 0.00 | 27 | 1012.6 |
| 20260503015008 | 23 | 19 | 3.2 | 8.0 | 0.00 | 0.00 | 0.00 | 27 | 1012.7 |
| 20260503014520 | 23 | 35 | 3.2 | 8.0 | 0.00 | 0.00 | 0.00 | 28 | 1012.7 |
| 20260503014008 | 23 | 69 | 1.6 | 6.4 | 0.00 | 0.00 | 0.00 | 27 | 1012.6 |
| 20260503013507 | 23 | 75 | 1.6 | 8.0 | 0.00 | 0.00 | 0.00 | 27 | 1012.6 |
| 20260503013033 | 24 | 39 | 1.6 | 9.7 | 0.00 | 0.00 | 0.00 | 27 | 1012.8 |
| 20260503012508 | 24 | 1 | 4.8 | 9.7 | 0.00 | 0.00 | 0.00 | 26 | 1012.8 |
| 20260503012010 | 24 | 25 | 3.2 | 9.7 | 0.00 | 0.00 | 0.00 | 25 | 1012.8 |
| 20260503011525 | 24 | 56 | 4.8 | 9.7 | 0.00 | 0.00 | 0.00 | 23 | 1012.9 |
| 20260503011012 | 25 | 50 | 4.8 | 9.7 | 0.00 | 0.00 | 0.00 | 22 | 1012.9 |
| 20260503010511 | 25 | 60 | 4.8 | 9.7 | 0.00 | 0.00 | 0.00 | 22 | 1012.9 |
| 20260503010011 | 25 | 57 | 4.8 | 8.0 | 0.00 | 0.00 | 0.00 | 22 | 1013.0 |
| 20260503005504 | 25 | 57 | 3.2 | 11.3 | 0.00 | 0.00 | 0.00 | 23 | 1013.0 |
| 20260503005005 | 25 | 20 | 4.8 | 12.9 | 0.00 | 0.00 | 0.00 | 23 | 1012.9 |
| 20260503004544 | 25 | 66 | 4.8 | 12.9 | 0.00 | 0.00 | 0.00 | 23 | 1012.9 |
| 20260503004008 | 25 | 25 | 4.8 | 16.1 | 0.00 | 0.00 | 0.00 | 24 | 1012.9 |
| 20260503003505 | 25 | 63 | 4.8 | 16.1 | 0.00 | 0.00 | 0.00 | 23 | 1012.9 |
| 20260503003032 | 25 | 25 | 4.8 | 14.5 | 0.00 | 0.00 | 0.00 | 23 | 1012.9 |
| 20260503002507 | 25 | 53 | 6.4 | 12.9 | 0.00 | 0.00 | 0.00 | 23 | 1013.0 |
| 20260503002010 | 26 | 347 | 4.8 | 11.3 | 0.00 | 0.00 | 0.00 | 22 | 1013.0 |
| 20260503001526 | 26 | 45 | 6.4 | 11.3 | 0.00 | 0.00 | 0.00 | 22 | 1013.1 |
| 20260503001009 | 26 | 47 | 4.8 | 11.3 | 0.00 | 0.00 | 0.00 | 19 | 1013.1 |
| 20260503000514 | 26 | 86 | 3.2 | 9.7 | 0.00 | 0.00 | 0.00 | 21 | 1013.0 |
| 20260503000026 | 26 | 78 | 3.2 | 9.7 | 0.00 | 0.00 | 0.00 | 18 | 1013.1 |
| 20260502235507 | 26 | 89 | 3.2 | 8.0 | 0.00 | 0.00 | 0.00 | 18 | 1013.1 |
| 20260502235009 | 26 | 105 | 3.2 | 9.7 | 0.00 | 0.00 | 0.00 | 19 | 1013.2 |
| 20260502234519 | 26 | 93 | 4.8 | 9.7 | 0.00 | 0.00 | 0.00 | 18 | 1013.2 |
| 20260502234003 | 26 | 43 | 1.6 | 6.4 | 0.00 | 0.00 | 0.00 | 20 | 1013.3 |
| 20260502233507 | 26 | 37 | 1.6 | 6.4 | 0.00 | 0.00 | 0.00 | 19 | 1013.3 |
| 20260502233019 | 26 | 94 | 3.2 | 8.0 | 0.00 | 0.00 | 0.00 | 16 | 1013.3 |
| 20260502232507 | 26 | 125 | 4.8 | 8.0 | 0.00 | 0.00 | 0.00 | 16 | 1013.3 |
| 20260502232006 | 26 | 53 | 1.6 | 8.0 | 0.00 | 0.00 | 0.00 | 19 | 1013.3 |
| 20260502231527 | 26 | 84 | 3.2 | 9.7 | 0.00 | 0.00 | 0.00 | 17 | 1013.3 |
| 20260502231003 | 26 | 93 | 3.2 | 11.3 | 0.00 | 0.00 | 0.00 | 16 | 1013.4 |
| 20260502230502 | 26 | 98 | 6.4 | 11.3 | 0.00 | 0.00 | 0.00 | 19 | 1013.4 |
| 20260502230007 | 27 | 85 | 3.2 | 11.3 | 0.00 | 0.00 | 0.00 | 20 | 1013.4 |
| 20260502225502 | 26 | 150 | 4.8 | 11.3 | 0.00 | 0.00 | 0.00 | 20 | 1013.5 |
| 20260502225002 | 26 | 122 | 1.6 | 6.4 | 0.00 | 0.00 | 0.00 | 19 | 1013.6 |
| 20260502224510 | 26 | 98 | 1.6 | 8.0 | 0.00 | 0.00 | 0.00 | 20 | 1013.6 |
| 20260502224004 | 26 | 87 | 4.8 | 9.7 | 0.00 | 0.00 | 0.00 | 20 | 1013.6 |
| 20260502223506 | 26 | 95 | 3.2 | 9.7 | 0.00 | 0.00 | 0.00 | 21 | 1013.7 |
| 20260502223016 | 26 | 87 | 3.2 | 9.7 | 0.00 | 0.00 | 0.00 | 20 | 1013.8 |
| 20260502222507 | 26 | 93 | 4.8 | 11.3 | 0.00 | 0.00 | 0.00 | 19 | 1013.8 |
| 20260502222006 | 26 | 92 | 4.8 | 11.3 | 0.00 | 0.00 | 0.00 | 19 | 1013.8 |
| 20260502221519 | 26 | 96 | 4.8 | 9.7 | 0.00 | 0.00 | 0.00 | 19 | 1013.9 |
| 20260502221006 | 26 | 101 | 1.6 | 6.4 | 0.00 | 0.00 | 0.00 | 18 | 1014.0 |
| 20260502220503 | 26 | 214 | 0.0 | 6.4 | 0.00 | 0.00 | 0.00 | 17 | 1014.1 |
| 20260502220012 | 26 | 114 | 1.6 | 6.4 | 0.00 | 0.00 | 0.00 | 16 | 1014.1 |
| 20260502215504 | 26 | 30 | 1.6 | 9.7 | 0.00 | 0.00 | 0.00 | 16 | 1014.2 |
| 20260502215003 | 26 | 23 | 1.6 | 11.3 | 0.00 | 0.00 | 0.00 | 19 | 1014.3 |
| 20260502214508 | 26 | 90 | 6.4 | 11.3 | 0.00 | 0.00 | 0.00 | 18 | 1014.4 |
| 20260502214005 | 27 | 113 | 6.4 | 9.7 | 0.00 | 0.00 | 0.00 | 19 | 1014.4 |
| 20260502213503 | 27 | 23 | 1.6 | 9.7 | 0.00 | 0.00 | 0.00 | 18 | 1014.4 |
| 20260502213028 | 27 | 78 | 3.2 | 9.7 | 0.00 | 0.00 | 0.00 | 17 | 1014.6 |
| 20260502212509 | 27 | 86 | 3.2 | 9.7 | 0.00 | 0.00 | 0.00 | 18 | 1014.6 |
| 20260502212006 | 26 | 46 | 4.8 | 9.7 | 0.00 | 0.00 | 0.00 | 18 | 1014.7 |
| 20260502211521 | 26 | 40 | 4.8 | 11.3 | 0.00 | 0.00 | 0.00 | 20 | 1014.8 |
| 20260502211007 | 26 | 19 | 4.8 | 11.3 | 0.00 | 0.00 | 0.00 | 23 | 1014.8 |
| 20260502210506 | 25 | 22 | 3.2 | 11.3 | 0.00 | 0.00 | 0.00 | 25 | 1015.0 |
| 20260502210024 | 26 | 93 | 3.2 | 11.3 | 0.00 | 0.00 | 0.00 | 22 | 1015.1 |
| 20260502205502 | 26 | 33 | 6.4 | 12.9 | 0.00 | 0.00 | 0.00 | 22 | 1015.1 |
| 20260502205005 | 26 | 91 | 3.2 | 12.9 | 0.00 | 0.00 | 0.00 | 23 | 1015.1 |
| 20260502204508 | 27 | 63 | 3.2 | 12.9 | 0.00 | 0.00 | 0.00 | 23 | 1015.1 |
| 20260502204004 | 26 | 348 | 1.6 | 6.4 | 0.00 | 0.00 | 0.00 | 21 | 1015.1 |
| 20260502203504 | 26 | 55 | 1.6 | 11.3 | 0.00 | 0.00 | 0.00 | 20 | 1015.2 |
| 20260502203012 | 25 | 98 | 1.6 | 12.9 | 0.00 | 0.00 | 0.00 | 21 | 1015.2 |
| 20260502202507 | 25 | 117 | 4.8 | 12.9 | 0.00 | 0.00 | 0.00 | 20 | 1015.2 |
| 20260502202006 | 25 | 158 | 4.8 | 11.3 | 0.00 | 0.00 | 0.00 | 24 | 1015.2 |
| 20260502201530 | 25 | 71 | 4.8 | 11.3 | 0.00 | 0.00 | 0.00 | 25 | 1015.3 |
| 20260502201008 | 25 | 94 | 3.2 | 9.7 | 0.00 | 0.00 | 0.00 | 24 | 1015.4 |
| 20260502200507 | 25 | 142 | 1.6 | 9.7 | 0.00 | 0.00 | 0.00 | 26 | 1015.5 |
| 20260502200022 | 25 | 89 | 3.2 | 9.7 | 0.00 | 0.00 | 0.00 | 25 | 1015.7 |
| 20260502195507 | 25 | 159 | 1.6 | 12.9 | 0.00 | 0.00 | 0.00 | 24 | 1015.7 |
| 20260502195007 | 24 | 82 | 3.2 | 12.9 | 0.00 | 0.00 | 0.00 | 24 | 1015.8 |
| 20260502194526 | 24 | 150 | 3.2 | 14.5 | 0.00 | 0.00 | 0.00 | 26 | 1015.9 |
| 20260502194003 | 24 | 193 | 4.8 | 14.5 | 0.00 | 0.00 | 0.00 | 29 | 1015.9 |
| 20260502193504 | 23 | 112 | 3.2 | 11.3 | 0.00 | 0.00 | 0.00 | 28 | 1016.0 |
| 20260502193008 | 23 | 141 | 6.4 | 12.9 | 0.00 | 0.00 | 0.00 | 27 | 1016.1 |
| 20260502192502 | 23 | 133 | 6.4 | 12.9 | 0.00 | 0.00 | 0.00 | 27 | 1016.3 |
| 20260502192003 | 23 | 105 | 3.2 | 14.5 | 0.00 | 0.00 | 0.00 | 26 | 1016.3 |
| 20260502191511 | 23 | 174 | 4.8 | 17.7 | 0.00 | 0.00 | 0.00 | 27 | 1016.3 |
| 20260502191003 | 23 | 182 | 4.8 | 17.7 | 0.00 | 0.00 | 0.00 | 26 | 1016.3 |
| 20260502190506 | 23 | 116 | 8.0 | 17.7 | 0.00 | 0.00 | 0.00 | 27 | 1016.4 |
| 20260502190019 | 23 | 174 | 11.3 | 17.7 | 0.00 | 0.00 | 0.00 | 25 | 1016.4 |
| 20260502185509 | 23 | 214 | 6.4 | 16.1 | 0.00 | 0.00 | 0.00 | 25 | 1016.4 |
| 20260502185007 | 23 | 167 | 6.4 | 16.1 | 0.00 | 0.00 | 0.00 | 27 | 1016.5 |
| 20260502184528 | 22 | 125 | 4.8 | 12.9 | 0.00 | 0.00 | 0.00 | 26 | 1016.7 |
| 20260502184006 | 22 | 177 | 3.2 | 14.5 | 0.00 | 0.00 | 0.00 | 26 | 1016.7 |
| 20260502183510 | 22 | 216 | 8.0 | 14.5 | 0.00 | 0.00 | 0.00 | 25 | 1016.8 |
| 20260502183029 | 22 | 103 | 1.6 | 11.3 | 0.00 | 0.00 | 0.00 | 27 | 1016.8 |
| 20260502182505 | 22 | 139 | 4.8 | 11.3 | 0.00 | 0.00 | 0.00 | 28 | 1017.0 |
| 20260502182004 | 21 | 309 | 1.6 | 8.0 | 0.00 | 0.00 | 0.00 | 28 | 1017.0 |
| 20260502181512 | 21 | 326 | 3.2 | 17.7 | 0.00 | 0.00 | 0.00 | 30 | 1017.1 |
| 20260502181006 | 21 | 188 | 6.4 | 17.7 | 0.00 | 0.00 | 0.00 | 30 | 1017.2 |
| 20260502180504 | 20 | 275 | 1.6 | 6.4 | 0.00 | 0.00 | 0.00 | 32 | 1017.2 |
| 20260502170506 | 17 | 231 | 0.0 | 12.9 | 0.00 | 0.00 | 0.00 | 34 | 1017.8 |
| 20260502164009 | 16 | 297 | 3.2 | 11.3 | 0.00 | 0.00 | 0.00 | 34 | 1018.0 |
| 20260502163507 | 16 | 180 | 1.6 | 11.3 | 0.00 | 0.00 | 0.00 | 35 | 1018.1 |
| 20260502163024 | 16 | 233 | 3.2 | 14.5 | 0.00 | 0.00 | 0.00 | 35 | 1018.1 |
| 20260502162508 | 16 | 251 | 6.4 | 14.5 | 0.00 | 0.00 | 0.00 | 35 | 1018.1 |
| 20260502162011 | 16 | 219 | 1.6 | 12.9 | 0.00 | 0.00 | 0.00 | 37 | 1018.1 |
| 20260502161526 | 15 | 260 | 3.2 | 14.5 | 0.00 | 0.00 | 0.00 | 36 | 1018.1 |
| 20260502161007 | 15 | 229 | 6.4 | 14.5 | 0.00 | 0.00 | 0.00 | 35 | 1018.2 |
| 20260502160510 | 15 | 202 | 3.2 | 12.9 | 0.00 | 0.00 | 0.00 | 34 | 1018.1 |
| 20260502152009 | 13 | 136 | 3.2 | 8.0 | 0.00 | 0.00 | 0.00 | 44 | 1018.0 |
| 20260502151524 | 12 | 167 | 1.6 | 8.0 | 0.00 | 0.00 | 0.00 | 44 | 1018.0 |
| 20260502151007 | 12 | 198 | 1.6 | 4.8 | 0.00 | 0.00 | 0.00 | 48 | 1018.0 |
| 20260502150507 | 11 | 226 | 0.0 | 4.8 | 0.00 | 0.00 | 0.00 | 48 | 1018.0 |
| 20260502130508 | 8 | 219 | 1.6 | 6.4 | 0.00 | 0.00 | 0.00 | 55 | 1017.3 |
| 20260502123504 | 7 | 34 | 0.0 | 1.6 | 0.00 | 0.00 | 0.00 | 65 | 1017.3 |
| 20260502123013 | 7 | 34 | 0.0 | 1.6 | 0.00 | 0.00 | 0.00 | 66 | 1017.4 |
| 20260502122507 | 7 | 34 | 0.0 | 0.0 | 0.00 | 0.00 | 0.00 | 65 | 1017.4 |
| 20260502122010 | 7 | 34 | 0.0 | 0.0 | 0.00 | 0.00 | 0.00 | 64 | 1017.3 |
| 20260502121522 | 8 | 34 | 0.0 | 0.0 | 0.00 | 0.00 | 0.00 | 64 | 1017.3 |
| 20260502121005 | 8 | 34 | 0.0 | 3.2 | 0.00 | 0.00 | 0.00 | 63 | 1017.3 |
| 20260502120508 | 7 | 34 | 0.0 | 3.2 | 0.00 | 0.00 | 0.00 | 64 | 1017.3 |
| 20260502115512 | 7 | 40 | 0.0 | 3.2 | 0.00 | 0.00 | 0.00 | 65 | 1017.2 |
| 20260502115010 | 7 | 40 | 1.6 | 3.2 | 0.00 | 0.00 | 0.00 | 65 | 1017.2 |
| 20260502114506 | 7 | 40 | 0.0 | 3.2 | 0.00 | 0.00 | 0.00 | 65 | 1017.2 |
| 20260502114004 | 7 | 40 | 0.0 | 3.2 | 0.00 | 0.00 | 0.00 | 65 | 1017.2 |
| 20260502113503 | 8 | 40 | 0.0 | 3.2 | 0.00 | 0.00 | 0.00 | 64 | 1017.2 |
| 20260502113009 | 8 | 40 | 0.0 | 1.6 | 0.00 | 0.00 | 0.00 | 63 | 1017.1 |
| 20260502112503 | 8 | 40 | 0.0 | 3.2 | 0.00 | 0.00 | 0.00 | 63 | 1017.2 |
| 20260502112005 | 8 | 40 | 0.0 | 3.2 | 0.00 | 0.00 | 0.00 | 63 | 1017.2 |
| 20260502111514 | 8 | 40 | 1.6 | 3.2 | 0.00 | 0.00 | 0.00 | 60 | 1017.1 |
| 20260502111005 | 9 | 40 | 1.6 | 3.2 | 0.00 | 0.00 | 0.00 | 59 | 1017.1 |
| 20260502110505 | 10 | 173 | 0.0 | 0.0 | 0.00 | 0.00 | 0.00 | 55 | 1017.0 |
| 20260502110021 | 10 | 173 | 0.0 | 3.2 | 0.00 | 0.00 | 0.00 | 53 | 1016.9 |
| 20260502105507 | 10 | 173 | 0.0 | 3.2 | 0.00 | 0.00 | 0.00 | 53 | 1017.0 |
| 20260502105006 | 10 | 160 | 0.0 | 1.6 | 0.00 | 0.00 | 0.00 | 53 | 1017.0 |
| 20260502104527 | 10 | 160 | 0.0 | 3.2 | 0.00 | 0.00 | 0.00 | 53 | 1016.9 |
| 20260502104009 | 10 | 160 | 0.0 | 3.2 | 0.00 | 0.00 | 0.00 | 52 | 1016.9 |
| 20260502103510 | 10 | 173 | 0.0 | 4.8 | 0.00 | 0.00 | 0.00 | 52 | 1016.9 |
| 20260502103026 | 10 | 188 | 0.0 | 6.4 | 0.00 | 0.00 | 0.00 | 51 | 1017.0 |
| 20260502102511 | 10 | 171 | 1.6 | 6.4 | 0.00 | 0.00 | 0.00 | 51 | 1017.0 |
| 20260502102003 | 10 | 207 | 1.6 | 6.4 | 0.00 | 0.00 | 0.00 | 51 | 1017.0 |
| 20260502101512 | 10 | 217 | 1.6 | 6.4 | 0.00 | 0.00 | 0.00 | 51 | 1017.0 |
| 20260502101004 | 10 | 235 | 1.6 | 8.0 | 0.00 | 0.00 | 0.00 | 52 | 1017.0 |
| 20260502100504 | 11 | 216 | 1.6 | 11.3 | 0.00 | 0.00 | 0.00 | 51 | 1017.0 |
| 20260502091528 | 10 | 144 | 1.6 | 3.2 | 0.00 | 0.00 | 0.00 | 53 | 1017.1 |
| 20260502091005 | 10 | 144 | 0.0 | 3.2 | 0.00 | 0.00 | 0.00 | 52 | 1017.1 |
| 20260502090504 | 10 | 144 | 0.0 | 3.2 | 0.00 | 0.00 | 0.00 | 53 | 1017.1 |
| 20260502071526 | 11 | 186 | 0.0 | 4.8 | 0.00 | 0.00 | 0.00 | 52 | 1017.5 |
| 20260502071003 | 11 | 177 | 1.6 | 4.8 | 0.00 | 0.00 | 0.00 | 52 | 1017.5 |
| 20260502070502 | 11 | 195 | 0.0 | 4.8 | 0.00 | 0.00 | 0.00 | 52 | 1017.4 |
| 20260502070008 | 11 | 147 | 1.6 | 4.8 | 0.00 | 0.00 | 0.00 | 51 | 1017.4 |
| 20260502065503 | 11 | 153 | 1.6 | 4.8 | 0.00 | 0.00 | 0.00 | 51 | 1017.5 |
| 20260502065004 | 11 | 160 | 1.6 | 4.8 | 0.00 | 0.00 | 0.00 | 52 | 1017.5 |
| 20260502064510 | 11 | 158 | 0.0 | 4.8 | 0.00 | 0.00 | 0.00 | 51 | 1017.5 |
| 20260502064007 | 11 | 173 | 0.0 | 3.2 | 0.00 | 0.00 | 0.00 | 51 | 1017.5 |
| 20260502063511 | 11 | 166 | 0.0 | 4.8 | 0.00 | 0.00 | 0.00 | 51 | 1017.6 |
| 20260502063021 | 11 | 204 | 0.0 | 6.4 | 0.00 | 0.00 | 0.00 | 50 | 1017.6 |
| 20260502062511 | 12 | 167 | 1.6 | 6.4 | 0.00 | 0.00 | 0.00 | 50 | 1017.5 |
| 20260502062006 | 12 | 193 | 0.0 | 6.4 | 0.00 | 0.00 | 0.00 | 48 | 1017.5 |
| 20260502061510 | 12 | 176 | 0.0 | 6.4 | 0.00 | 0.00 | 0.00 | 47 | 1017.5 |
| 20260502061005 | 12 | 209 | 1.6 | 4.8 | 0.00 | 0.00 | 0.00 | 46 | 1017.5 |
| 20260502060506 | 13 | 212 | 0.0 | 8.0 | 0.00 | 0.00 | 0.00 | 45 | 1017.5 |